Mobridge, SD

12:38 AM CDT on April 24, 2018 (GMT -0500)
Mobridge Municipal

Weather History for KMBG - November, 2012

Change the Weather History Date:

Thursday, November 1, 2012

  Actual Average Record
Temperature  
Mean Temperature 35 °F 40 °F  
Max Temperature 43 °F 52 °F 73 °F (1978)
Min Temperature 27 °F 29 °F -4 °F (1935)
Degree Days  
Heating Degree Days 30 25  
Month to date heating degree days 30 25  
Since 1 July heating degree days 787 799  
Cooling Degree Days 0 0  
Month to date cooling degree days 0 0  
Year to date cooling degree days 866 644  
Moisture  
Dew Point 28 °F    
Average Humidity 71    
Maximum Humidity 92    
Minimum Humidity 49    
Precipitation  
Precipitation 0.00 in 0.03 in 0.53 in (1992)
Month to date precipitation 0.00 0.03  
Year to date precipitation 12.81 16.98  
Snow  
Snow 0.00 in - - ()
Month to date snowfall 0.0  
Since 1 July snowfall T  
Snow Depth 0.00 in    
Sea Level Pressure  
Sea Level Pressure 30.06 in    
Wind  
Wind Speed 10 mph (East)    
Max Wind Speed 22 mph    
Max Gust Speed 26 mph    
Visibility 9 miles    
Events      
T = Trace of Precipitation, MM = Missing Value Source: NWS Daily Summary

Daily Weather History Graph

Daily Weather History Graph

Search for Another Location

Airport or City:

Astronomy

Nov. 01, 2012 Rise Set
Actual Time 8:21 AM CDT 6:27 PM CDT
Civil Twilight 7:50 AM CDT 6:58 PM CDT
Nautical Twilight 7:15 AM CDT 7:33 PM CDT
Astronomical Twilight 6:41 AM CDT 8:08 PM CDT
Moon 8:19 PM CDT (11/1) 11:02 AM CDT (11/1)
Length of Visible Light 11h 07m
Length of Day
10h 05m
Waning Gibbous, 93% of the Moon is Illuminated
Nov 1
Waning Gibbous
Nov 6
Last Quarter
Nov 13
New
Nov 20
First Quarter
Nov 28
Full

Hourly Weather History & Observations

Time (CDT) Temp. Windchill Dew Point Humidity Pressure Visibility Wind Dir Wind Speed Gust Speed Precip Events Conditions
12:52 AM 39.0 °F 32.3 °F 37.9 °F 96% 30.10 in 8.0 mi North 10.4 mph - N/A   Overcast
1:52 AM 39.0 °F 34.8 °F 37.9 °F 96% 30.10 in 6.0 mi North 5.8 mph - N/A   Overcast
2:52 AM 39.0 °F 34.0 °F 37.9 °F 96% 30.09 in 5.0 mi North 6.9 mph - N/A   Overcast
3:52 AM 39.0 °F 33.4 °F 37.9 °F 96% 30.09 in 7.0 mi North 8.1 mph - N/A   Overcast
4:52 AM 39.0 °F 34.0 °F 37.0 °F 93% 30.09 in 10.0 mi ENE 6.9 mph - N/A   Unknown
5:19 AM 37.4 °F 32.1 °F 35.6 °F 93% 30.07 in 10.0 mi ENE 6.9 mph - N/A   Overcast
5:52 AM 37.0 °F 31.0 °F 35.1 °F 93% 30.09 in 10.0 mi ENE 8.1 mph - N/A   Overcast
6:52 AM 36.0 °F 30.3 °F 34.0 °F 93% 30.11 in 10.0 mi East 6.9 mph - N/A   Overcast
7:52 AM 36.0 °F 30.3 °F 32.0 °F 86% 30.11 in 10.0 mi ENE 6.9 mph - N/A   Overcast
8:52 AM 36.0 °F 31.1 °F 32.0 °F 86% 30.13 in 10.0 mi East 5.8 mph - N/A   Overcast
9:26 AM 33.8 °F 24.8 °F 26.6 °F 75% 30.09 in 10.0 mi East 12.7 mph - N/A   Overcast
9:52 AM 33.1 °F 23.9 °F 27.0 °F 78% 30.14 in 10.0 mi East 12.7 mph - N/A   Overcast
10:43 AM 33.8 °F 24.3 °F 26.6 °F 75% 30.08 in 10.0 mi East 13.8 mph - N/A   Scattered Clouds
10:52 AM 34.0 °F 24.6 °F 26.1 °F 73% 30.13 in 10.0 mi East 13.8 mph - N/A   Clear
11:52 AM 35.1 °F 26.4 °F 25.0 °F 67% 30.12 in 10.0 mi East 12.7 mph - N/A   Clear
12:52 PM 39.0 °F 32.3 °F 25.0 °F 57% 30.08 in 10.0 mi East 10.4 mph - N/A   Clear
1:52 PM 39.9 °F 33.4 °F 25.0 °F 55% 30.05 in 10.0 mi ESE 10.4 mph 16.1 mph N/A   Clear
2:52 PM 42.1 °F 36.1 °F 25.0 °F 51% 30.02 in 10.0 mi ESE 10.4 mph - N/A   Clear
3:52 PM 42.1 °F 35.7 °F 24.1 °F 49% 30.01 in 10.0 mi ESE 11.5 mph - N/A   Clear
4:52 PM 42.1 °F 34.2 °F 24.1 °F 49% 29.99 in 10.0 mi ESE 16.1 mph - N/A   Clear
5:52 PM 39.9 °F 32.9 °F 23.0 °F 51% 29.99 in 10.0 mi East 11.5 mph - N/A   Clear
6:52 PM 37.0 °F 29.3 °F 23.0 °F 57% 29.99 in 10.0 mi East 11.5 mph - N/A   Clear
7:52 PM 35.1 °F 26.9 °F 21.9 °F 59% 30.01 in 10.0 mi East 11.5 mph - N/A   Clear
8:52 PM 33.1 °F 23.4 °F 23.0 °F 66% 29.99 in 10.0 mi East 13.8 mph 19.6 mph N/A   Clear
9:52 PM 30.9 °F 21.2 °F 21.9 °F 69% 30.02 in 10.0 mi East 12.7 mph 19.6 mph N/A   Clear
10:52 PM 28.9 °F 18.6 °F 21.0 °F 72% 30.03 in 8.0 mi East 12.7 mph 20.7 mph N/A   Clear
11:52 PM 28.0 °F 18.1 °F 21.0 °F 75% 30.02 in 10.0 mi East 11.5 mph - N/A   Clear